Temp
10 10 9 9 10 9 9 9 9 9 9 8 8 7 7 8 7 6 6 5 4 4 3 3 -1 -2 -2
9 9 9 9 10 10 10 9 9 9 8 9 8 7 6 7 6 6 5 4 4 3 3 2 0 -2 -3
9 9 9 9 9 9 9 9 9 8 8 8 8 6 6 5 4 5 5 4 4 3 2 1 0 -0 -3
9 9 9 9 9 8 9 8 8 8 8 7 8 7 5 4 3 4 4 4 3 2 1 1 -0 -2 -4
8 8 8 8 8 8 8 8 8 8 7 7 6 6 5 3 2 4 3 4 2 1 1 -1 -2 -4 -4
6 7 7 8 7 8 8 6 6 7 6 6 6 4 4 1 2 1 2 3 2 1 0 -1 -3 -5 -5
6 6 7 7 8 7 6 7 5 8 5 4 5 4 1 0 2 1 2 1 0 0 -1 -2 -4 -5 -5
5 5 6 7 7 8 7 5 6 6 3 4 4 2 1 0 0 1 0 -1 -0 -1 -2 -3 -4 -5 -6
5 6 7 7 7 7 6 5 4 4 2 3 1 1 -0 1 -0 -0 -1 -1 -2 -4 -3 -4 -4 -5 -6
5 6 7 7 7 7 7 6 3 2 3 0 0 -1 -2 -1 -1 -1 -1 -2 -3 -3 -4 -5 -6 -6 -5
3 4 6 5 6 6 6 5 3 3 2 1 -1 0 -1 -1 -2 -2 -2 -2 -3 -3 -3 -4 -5 -6 -5
3 4 5 4 3 4 3 2 1 2 2 0 1 -1 -2 -1 -2 -2 -2 -3 -3 -3 -4 -4 -4 -5 -6
2 2 2 1 1 1 0 -0 -0 -1 -1 -1 -1 -1 -1 -2 -2 -2 -3 -3 -3 -4 -4 -4 -4 -5 -6
0 -0 -0 -1 -1 -1 -1 -1 -1 -2 -3 -4 -3 -3 -2 -3 -3 -2 -3 -3 -4 -4 -5 -4 -5 -6 -6
-1 -1 -1 -2 -2 -2 -2 -2 -2 -3 -3 -4 -4 -3 -3 -3 -2 -3 -3 -3 -4 -4 -5 -5 -5 -5 -6
-2 -2 -2 -2 -3 -3 -2 -3 -3 -4 -4 -4 -3 -4 -3 -3 -3 -3 -4 -4 -5 -6 -6 -6 -5 -4 -5
-3 -3 -3 -4 -3 -3 -3 -4 -5 -4 -4 -4 -4 -4 -4 -3 -3 -4 -4 -5 -6 -6 -6 -6 -6 -5 -5
Height
1341 1342 1341 1340 1340 1341 1341 1340 1341 1342 1343 1344 1345 1348 1350 1351 1351 1353 1353 1352 1352 1351 1350 1349 1349 1351 1352
1331 1330 1329 1325 1325 1326 1327 1327 1327 1328 1328 1329 1333 1333 1336 1339 1340 1342 1342 1342 1342 1341 1340 1340 1340 1342 1344
1316 1318 1314 1311 1312 1314 1314 1314 1314 1315 1313 1314 1318 1319 1323 1328 1330 1331 1331 1331 1332 1332 1331 1331 1333 1334 1336
1309 1305 1301 1294 1298 1298 1299 1301 1298 1301 1304 1303 1305 1308 1311 1314 1318 1320 1321 1321 1322 1323 1322 1324 1326 1327 1330
1299 1297 1292 1277 1282 1281 1285 1287 1285 1287 1289 1288 1293 1294 1299 1302 1305 1308 1313 1313 1314 1315 1315 1317 1318 1320 1323
1289 1285 1281 1279 1267 1271 1275 1273 1271 1274 1274 1275 1278 1282 1287 1290 1296 1301 1304 1304 1305 1307 1308 1309 1311 1314 1315
1279 1274 1270 1270 1265 1259 1258 1259 1260 1260 1263 1262 1267 1270 1278 1285 1288 1293 1297 1296 1297 1298 1300 1302 1304 1307 1308
1268 1261 1260 1257 1255 1250 1248 1248 1246 1252 1254 1252 1255 1261 1270 1276 1280 1286 1288 1288 1289 1290 1293 1296 1297 1299 1300
1252 1249 1248 1245 1243 1239 1240 1242 1241 1236 1242 1243 1247 1253 1261 1266 1273 1276 1279 1280 1282 1284 1286 1289 1290 1291 1292
1236 1234 1232 1230 1230 1227 1227 1227 1227 1226 1230 1237 1240 1247 1255 1260 1264 1268 1271 1272 1274 1277 1280 1282 1283 1284 1284
1225 1222 1219 1217 1215 1215 1216 1216 1215 1216 1220 1225 1234 1239 1247 1253 1258 1261 1264 1267 1268 1271 1273 1274 1275 1276 1277
1215 1211 1209 1208 1207 1208 1208 1209 1213 1217 1219 1224 1228 1236 1243 1249 1253 1256 1258 1260 1262 1264 1266 1267 1268 1269 1270
1206 1203 1202 1202 1204 1204 1206 1207 1210 1215 1220 1223 1228 1237 1241 1244 1248 1251 1254 1255 1256 1257 1259 1260 1262 1262 1263
1202 1201 1200 1200 1201 1203 1205 1207 1210 1215 1220 1224 1231 1236 1238 1241 1244 1246 1248 1249 1250 1252 1252 1253 1254 1254 1255
1201 1199 1199 1198 1199 1202 1205 1209 1213 1216 1221 1226 1230 1233 1236 1238 1239 1240 1242 1244 1245 1246 1245 1245 1246 1247 1247
1200 1199 1198 1197 1200 1203 1207 1212 1216 1220 1224 1227 1229 1232 1234 1236 1236 1236 1238 1238 1239 1240 1239 1237 1237 1239 1238
1200 1198 1197 1198 1201 1204 1208 1213 1218 1223 1225 1227 1229 1231 1232 1231 1233 1233 1233 1234 1233 1232 1233 1231 1228 1229 1229
Wind_Speed
51 50 42 46 45 41 44 46 48 39 40 45 46 47 45 43 42 36 34 30 29 28 26 26 20 17 18
51 48 49 49 49 46 43 44 47 44 41 44 49 48 45 45 39 35 31 28 28 26 26 24 23 19 17
53 50 50 50 49 48 46 44 47 47 52 37 46 50 44 42 37 33 27 26 27 25 24 23 23 21 15
47 49 50 49 49 48 48 51 41 46 48 43 41 48 48 40 33 26 25 25 26 24 23 23 21 18 16
41 43 43 33 41 44 51 51 47 48 45 53 47 49 43 37 29 28 25 24 25 25 23 21 19 16 17
40 40 45 49 33 42 51 45 44 49 48 52 44 45 41 34 26 24 25 25 25 23 21 20 18 17 20
41 42 44 44 43 45 43 50 46 43 39 48 43 42 38 27 20 24 27 24 23 21 18 17 16 18 19
38 42 43 42 39 43 43 45 45 39 35 35 39 39 30 25 22 27 24 22 22 19 17 17 17 19 19
40 41 41 40 36 36 36 40 38 37 36 32 30 29 26 22 24 23 22 22 19 19 19 18 18 18 19
42 43 43 42 33 41 41 42 40 32 35 34 26 22 13 21 24 23 21 18 18 18 18 17 17 18 20
41 40 45 40 41 44 36 42 42 32 29 36 23 21 14 9 17 18 17 17 18 18 18 18 20 19 20
38 39 38 37 34 32 28 30 27 24 19 27 17 18 20 17 11 17 17 16 16 16 18 18 18 17 17
35 34 33 29 25 22 19 20 21 16 16 16 12 14 15 14 10 11 12 13 14 16 17 15 15 17 19
26 24 22 19 20 21 22 20 18 16 14 13 12 10 11 11 11 9 10 8 7 10 14 17 18 17 19
22 19 17 20 23 21 18 17 16 16 13 12 9 9 9 9 8 6 6 9 10 12 16 17 17 18 19
20 16 18 22 22 18 16 15 11 11 10 10 8 6 5 4 4 4 8 8 9 13 16 21 22 16 18
18 15 18 20 20 21 19 14 12 11 9 7 5 3 2 4 6 6 8 10 14 17 17 21 25 19 16
Wind_Direction
269 270 264 268 271 269 268 266 258 251 247 253 251 246 244 245 248 254 259 261 268 277 278 277 258 245 245
272 270 269 265 271 267 264 264 259 251 243 249 250 244 242 244 248 254 258 262 271 276 274 270 263 246 243
268 269 267 271 266 265 262 261 261 254 247 241 249 245 243 246 245 253 257 265 270 269 270 268 260 251 240
276 272 258 256 257 259 258 257 255 254 250 243 253 249 245 243 243 251 256 263 268 265 265 262 255 248 241
284 278 280 260 248 254 259 258 255 250 252 237 239 237 245 239 241 251 252 262 262 260 261 254 250 242 245
288 284 280 280 256 270 264 241 251 245 245 241 239 238 237 233 240 244 254 259 257 258 250 249 244 237 245
292 287 285 281 282 257 257 246 241 247 255 233 240 236 232 232 234 249 256 251 253 253 252 242 241 241 251
283 293 287 284 280 276 263 248 248 251 234 228 226 229 224 226 232 240 240 242 246 245 237 245 246 249 249
285 278 285 281 280 268 254 245 230 236 219 219 210 204 207 228 227 235 235 239 241 237 233 250 251 255 255
296 283 285 277 279 268 259 247 228 219 219 206 196 187 193 222 234 234 235 226 227 228 241 244 244 250 257
292 287 285 285 289 265 258 246 233 219 216 198 193 191 190 188 205 204 212 220 232 241 242 242 245 249 256
292 288 284 280 266 252 242 236 230 226 191 185 187 195 205 209 202 211 222 228 231 241 248 248 246 245 246
301 287 277 269 260 237 216 196 188 175 168 184 186 200 205 211 201 203 213 232 237 244 246 235 244 246 249
298 285 275 257 232 210 196 185 176 168 175 172 194 200 206 211 226 225 234 234 209 224 250 253 255 256 255
304 287 263 231 207 196 188 187 181 177 177 177 185 198 211 231 250 254 250 251 245 244 255 262 256 256 258
301 274 244 221 198 187 190 186 179 169 171 175 186 203 229 246 274 265 257 248 254 259 267 277 277 271 270
293 266 235 216 199 190 182 177 161 166 172 177 187 222 305 321 290 251 272 277 288 282 278 274 280 282 271